Clayton Fire Co DE US WEATHERSTEM current weather conditions

sailwx.info

Wind from 317 at 12 knots gusting 19

Air temperature 2.3° C
Dewpoint -8.4° C

Last reported at 2020-Feb-27 23:00 UTC.
Time now 2020-Feb-27 23:27 UTC

Location: N 39°18' W 075°38'.
View on Google Maps.

See reports from other nearby stations

  
Tides and Currents Weather Stations Pressure Air Temp Water Temp Dewpoint Dewpoint Depression Visibility Wind Speed Wind Dir Waves Ship Positions
date/time (UTC)wind fromknots sea level pressurealtimeterstation pressurevisibilityair tempwater tempwave heightnotes
2020-Feb-27 23:00 317 12 gusting 19 2.3
2020-Feb-27 22:50 300 10 gusting 19 2.5
2020-Feb-27 22:30 270 12 gusting 26 2.8
2020-Feb-27 22:20 292 6 gusting 26 3.1
2020-Feb-27 22:00 325 9 gusting 25 3.4
2020-Feb-27 21:30 288 11 gusting 26 4.4
2020-Feb-27 21:10 305 22 gusting 28 5.3
2020-Feb-27 21:00 277 9 gusting 26 5.7
2020-Feb-27 20:50 307 9 gusting 22 5.8
2020-Feb-27 20:30 264 20 gusting 27 5.9
2020-Feb-27 20:20 290 13 gusting 26 6.1
2020-Feb-27 20:10 234 4 gusting 26 5.9
2020-Feb-27 20:00 274 9 gusting 22 5.9
2020-Feb-27 19:50 251 27 gusting 27 6.0
2020-Feb-27 19:30 290 11 gusting 24 6.1
2020-Feb-27 19:20 290 16 gusting 26 6.1
2020-Feb-27 19:10 257 14 gusting 28 6.2
2020-Feb-27 19:00 249 16 gusting 28 5.8
2020-Feb-27 18:50 296 12 gusting 26 5.7
2020-Feb-27 18:30 292 16 gusting 25 5.6
2020-Feb-27 18:20 279 15 gusting 22 5.7
2020-Feb-27 18:10 244 4 gusting 26 5.2
2020-Feb-27 18:00 292 19 gusting 27 5.4
2020-Feb-27 17:50 267 9 gusting 26 5.5
2020-Feb-27 17:30 266 15 gusting 33 4.6
2020-Feb-27 17:20 293 10 gusting 26 4.7
2020-Feb-27 17:00 288 12 gusting 30 4.7
2020-Feb-27 16:50 257 22 gusting 26 4.3
2020-Feb-27 16:30 284 6 gusting 22 4.8
2020-Feb-27 16:20 273 13 gusting 27 4.4
2020-Feb-27 16:10 295 11 gusting 29 4.2
2020-Feb-27 16:00 300 14 gusting 27 4.1
2020-Feb-27 15:50 290 21 gusting 30 4.1
2020-Feb-27 15:30 312 19 gusting 25 4.2
2020-Feb-27 15:20 320 13 gusting 24 4.1
2020-Feb-27 15:10 307 11 gusting 27 4.0
2020-Feb-27 15:00 342 14 gusting 32 3.8
2020-Feb-27 14:50 302 11 gusting 26 4.1
2020-Feb-27 14:30 273 13 gusting 25 3.7
2020-Feb-27 14:20 273 9 gusting 26 3.6
2020-Feb-27 14:10 288 19 gusting 22 3.6
2020-Feb-27 14:00 289 12 gusting 29 3.4
2020-Feb-27 13:50 249 18 gusting 28 3.4
2020-Feb-27 13:30 311 13 gusting 29 3.3
2020-Feb-27 13:20 265 10 gusting 30 3.3
2020-Feb-27 13:10 271 13 gusting 31 3.3
2020-Feb-27 13:00 325 13 gusting 26 3.6
2020-Feb-27 12:50 290 20 gusting 24 3.7
2020-Feb-27 12:30 300 23 gusting 27 3.8
2020-Feb-27 12:20 280 13 gusting 26 3.9
2020-Feb-27 12:10 292 11 gusting 25 3.9
2020-Feb-27 12:00 289 12 gusting 22 4.1
2020-Feb-27 11:50 294 15 gusting 26 4.3
2020-Feb-27 11:30 281 6 gusting 22 4.4
2020-Feb-27 11:20 300 10 gusting 23 4.3
2020-Feb-27 11:10 267 12 gusting 15 4.4
2020-Feb-27 11:00 265 8 gusting 16 4.6
2020-Feb-27 10:50 237 5 gusting 17 4.7
2020-Feb-27 10:30 277 13 gusting 19 4.7
2020-Feb-27 10:20 271 6 gusting 18 4.8
2020-Feb-27 10:10 296 6 gusting 19 4.9
2020-Feb-27 10:00 248 12 gusting 24 4.9
2020-Feb-27 09:50 271 7 gusting 16 4.9
2020-Feb-27 09:30 262 6 gusting 13 4.9
2020-Feb-27 09:20 242 9 gusting 13 4.9
2020-Feb-27 09:10 298 12 gusting 18 5.1
2020-Feb-27 09:00 290 7 gusting 14 5.2
2020-Feb-27 08:50 302 4 gusting 20 5.3
2020-Feb-27 08:20 279 8 gusting 17 6.0
2020-Feb-27 08:10 251 6 gusting 26 6.2
2020-Feb-27 08:00 284 17 gusting 21 6.3
2020-Feb-27 07:50 292 14 gusting 27 6.2
2020-Feb-27 07:30 288 6 gusting 16 6.6
2020-Feb-27 07:20 261 8 gusting 22 6.6
2020-Feb-27 07:10 292 14 gusting 20 6.6
2020-Feb-27 07:00 273 9 gusting 17 6.5
2020-Feb-27 06:50 310 12 gusting 22 6.6
2020-Feb-27 06:30 272 18 gusting 24 7.1
2020-Feb-27 06:20 290 18 gusting 24 7.8
2020-Feb-27 06:10 261 11 gusting 13 8.3
2020-Feb-27 06:00 150 4 gusting 9 8.2
2020-Feb-27 05:50 115 7 gusting 10 8.0
2020-Feb-27 05:30 130 4 gusting 12 7.7
2020-Feb-27 05:20 164 4 gusting 11 7.7
2020-Feb-27 05:10 129 6 gusting 10 7.7
2020-Feb-27 05:00 144 6 gusting 12 7.6
2020-Feb-27 04:50 138 12 gusting 13 7.6
2020-Feb-27 04:30 107 12 gusting 16 7.6
2020-Feb-27 04:20 123 8 gusting 17 7.5
2020-Feb-27 04:10 118 14 gusting 16 7.6
2020-Feb-27 04:00 105 6 gusting 13 7.6
2020-Feb-27 03:50 113 9 gusting 13 7.5
2020-Feb-27 03:30 101 6 gusting 7 7.5
2020-Feb-27 03:20 096 7 gusting 11 7.4
2020-Feb-27 03:10 099 6 gusting 9 7.4
2020-Feb-27 03:00 134 10 gusting 12 7.4
2020-Feb-27 02:50 112 8 gusting 13 7.3
2020-Feb-27 02:30 096 6 gusting 15 7.3
2020-Feb-27 02:20 119 12 gusting 18 7.3
2020-Feb-27 02:10 119 11 gusting 14 7.4
2020-Feb-27 02:00 116 9 gusting 18 7.4
2020-Feb-27 01:50 092 10 gusting 15 7.5
2020-Feb-27 01:30 107 10 gusting 15 7.6
2020-Feb-27 01:20 123 9 gusting 13 7.6
2020-Feb-27 01:10 122 7 gusting 11 7.7
2020-Feb-27 01:00 109 5 gusting 12 7.7
2020-Feb-27 00:40 115 9 gusting 14 7.8
2020-Feb-27 00:30 115 16 gusting 16 7.7
2020-Feb-27 00:20 121 9 gusting 14 7.8
2020-Feb-27 00:10 128 14 gusting 15 7.8
2020-Feb-27 00:00 107 10 gusting 19 7.9
2020-Feb-26 23:40 128 6 gusting 13 8.4
2020-Feb-26 23:30 130 12 gusting 15 8.6
2020-Feb-26 23:20 126 12 gusting 17 8.7
2020-Feb-26 23:10 126 9 gusting 12 8.7
2020-Feb-26 23:00 115 8 gusting 13 8.8
2020-Feb-26 22:50 134 13 gusting 13 8.8
2020-Feb-26 22:40 142 4 gusting 13 8.9
2020-Feb-26 22:30 140 6 gusting 13 9.1
2020-Feb-26 22:20 134 9 gusting 12 9.2
2020-Feb-26 22:10 132 9 gusting 9 9.2
2020-Feb-26 22:00 132 6 gusting 10 9.3
2020-Feb-26 21:40 086 4 gusting 9 9.5
2020-Feb-26 21:30 098 6 gusting 9 9.6
2020-Feb-26 21:20 117 3 gusting 8 9.5
2020-Feb-26 21:10 112 5 gusting 7 9.4
2020-Feb-26 21:00 092 5 gusting 6 9.3
2020-Feb-26 20:50 074 3 gusting 8 9.3
2020-Feb-26 20:30 082 6 gusting 6 9.3
2020-Feb-26 20:20 100 7 gusting 9 9.1
2020-Feb-26 20:10 083 6 gusting 7 9.1
2020-Feb-26 20:00 135 6 gusting 9 9.0
2020-Feb-26 19:50 119 7 gusting 9 8.9
2020-Feb-26 19:40 119 6 gusting 8 8.8
2020-Feb-26 19:30 092 6 gusting 7 8.8
2020-Feb-26 19:20 122 4 gusting 7 8.7
2020-Feb-26 19:10 069 2 gusting 4 8.6
2020-Feb-26 19:00 089 4 gusting 6 8.4
2020-Feb-26 18:50 108 2 gusting 6 8.5
2020-Feb-26 18:30 063 2 gusting 6 8.5
2020-Feb-26 18:20 108 2 gusting 6 8.4
2020-Feb-26 18:10 079 6 gusting 7 8.4
2020-Feb-26 18:00 103 7 gusting 9 8.4
2020-Feb-26 17:50 116 8 gusting 10 8.4
2020-Feb-26 17:30 124 3 gusting 9 8.4
2020-Feb-26 17:20 124 4 gusting 9 8.4
2020-Feb-26 17:10 108 5 gusting 9 8.3
2020-Feb-26 17:00 114 6 gusting 10 8.3
2020-Feb-26 16:50 123 4 gusting 6 8.2
2020-Feb-26 16:40 132 8 gusting 9 7.9
2020-Feb-26 16:30 128 4 gusting 9 7.8
2020-Feb-26 16:20 144 5 gusting 8 7.8
2020-Feb-26 16:10 117 5 gusting 6 7.9
2020-Feb-26 16:00 134 3 gusting 7 7.7
2020-Feb-26 15:50 119 7 gusting 8 7.7
2020-Feb-26 15:30 124 3 gusting 6 7.6
2020-Feb-26 15:20 128 3 gusting 6 7.6
2020-Feb-26 15:10 121 1 gusting 6 7.5
2020-Feb-26 15:00 097 2 gusting 5 7.6
2020-Feb-26 14:50 099 0 gusting 3 7.6
2020-Feb-26 14:30 096 2 gusting 3 7.6
2020-Feb-26 14:20 107 2 gusting 4 7.6
2020-Feb-26 14:10 103 1 gusting 5 7.6
2020-Feb-26 14:00 103 1 gusting 5 7.5
2020-Feb-26 13:50 099 2 gusting 3 7.4
2020-Feb-26 13:30 081 1 gusting 6 7.4
2020-Feb-26 13:20 117 2 gusting 6 7.4
2020-Feb-26 12:50 099 5 gusting 7 7.6
2020-Feb-26 12:40 093 3 gusting 6 7.7
2020-Feb-26 12:30 098 3 gusting 6 7.7
2020-Feb-26 12:20 097 1 gusting 3 7.8
2020-Feb-26 12:10 139 1 gusting 3 7.8
2020-Feb-26 12:00 102 1 gusting 3 7.7
2020-Feb-26 11:50 041 1 gusting 2 7.8
2020-Feb-26 11:40 039 1 gusting 3 7.8
2020-Feb-26 11:30 019 2 gusting 3 7.8
2020-Feb-26 11:10 7.8
2020-Feb-26 11:00 078 0 gusting 2 7.8
2020-Feb-26 10:50 078 0 gusting 2 7.8
2020-Feb-26 10:40 076 1 gusting 2 7.8
2020-Feb-26 10:30 043 0 gusting 2 7.7
2020-Feb-26 10:20 063 0 gusting 1 7.8
2020-Feb-26 10:10 063 1 gusting 3 7.8
2020-Feb-26 10:00 055 1 gusting 3 7.8
2020-Feb-26 09:50 049 2 gusting 3 7.8
2020-Feb-26 09:40 056 3 gusting 3 7.8
2020-Feb-26 09:30 077 1 gusting 4 7.8
2020-Feb-26 09:20 076 0 gusting 5 7.8
2020-Feb-26 09:10 061 1 gusting 4 7.8
2020-Feb-26 09:00 054 1 gusting 4 7.9
2020-Feb-26 08:50 051 2 gusting 5 7.9
2020-Feb-26 08:40 049 1 gusting 4 7.9
2020-Feb-26 08:30 044 1 gusting 5 7.9
2020-Feb-26 08:20 047 0 gusting 4 8.0
2020-Feb-26 08:10 059 1 gusting 4 8.0
2020-Feb-26 08:00 057 3 gusting 4 8.1
2020-Feb-26 07:50 044 0 gusting 4 8.1
2020-Feb-26 07:40 057 0 gusting 3 8.1
2020-Feb-26 07:30 8.1
2020-Feb-26 07:20 071 1 gusting 3 8.2
2020-Feb-26 07:10 071 2 gusting 3 8.2
2020-Feb-26 07:00 032 2 gusting 4 8.2
2020-Feb-26 06:50 056 2 gusting 2 8.2
2020-Feb-26 06:30 056 1 gusting 3 8.3
2020-Feb-26 06:20 8.3
2020-Feb-26 06:10 077 1 gusting 2 8.4
2020-Feb-26 06:00 077 3 gusting 3 8.4
2020-Feb-26 05:50 088 1 gusting 2 8.5
2020-Feb-26 05:40 088 1 gusting 2 8.6
2020-Feb-26 05:30 8.6
2020-Feb-26 05:20 077 1 gusting 2 8.7
2020-Feb-26 05:10 8.7
2020-Feb-26 05:00 071 0 gusting 2 8.8
2020-Feb-26 04:50 071 1 gusting 3 8.8
2020-Feb-26 04:40 085 0 gusting 1 8.9
2020-Feb-26 04:30 085 0 gusting 2 8.9
2020-Feb-26 04:20 080 2 gusting 2 9.1
2020-Feb-26 04:10 9.1
2020-Feb-26 04:00 076 1 gusting 5 9.1
2020-Feb-26 03:50 065 1 gusting 2 9.2
2020-Feb-26 03:40 038 1 gusting 2 9.3
2020-Feb-26 03:30 038 1 gusting 2 9.3
2020-Feb-26 03:20 038 0 gusting 1 9.3
2020-Feb-26 03:10 038 0 gusting 2 9.3
2020-Feb-26 03:00 9.3
2020-Feb-26 02:50 9.3
2020-Feb-26 02:40 005 0 gusting 1 9.3
2020-Feb-26 02:30 9.3
2020-Feb-26 02:20 9.2
2020-Feb-26 02:10 9.2
2020-Feb-26 02:00 9.2
2020-Feb-26 01:50 9.2
2020-Feb-26 01:40 9.2
2020-Feb-26 01:30 9.2
2020-Feb-26 01:20 005 0 gusting 2 9.2
2020-Feb-26 01:10 044 0 gusting 1 9.2
2020-Feb-26 01:00 044 1 gusting 2 9.2
2020-Feb-26 00:50 092 0 gusting 2 9.2
2020-Feb-26 00:40 096 0 gusting 1 9.2
2020-Feb-26 00:30 096 0 gusting 1 9.2
2020-Feb-26 00:20 096 0 gusting 0 9.2
2020-Feb-26 00:10 9.2
2020-Feb-26 00:00 096 0 gusting 1 9.2
2020-Feb-25 23:40 053 0 gusting 2 9.1
2020-Feb-25 23:30 053 0 gusting 2 9.1
2020-Feb-25 23:20 053 1 gusting 2 9.1
2020-Feb-25 23:10 053 0 gusting 3 9.1
2020-Feb-25 23:00 046 1 gusting 3 9.1